#timestamp,LO_Frequency,Hit,StdDev 
1664902815.1,286047002.0,N
1664902816.0,286047002.0,N
1664902835.8,286047004.0,N
1664902855.7,286047003.8,N
1664902875.5,286047004.1,N
1664902895.3,286047003.1,N
1664902915.2,286047003.2,N
1664902935.0,286047003.1,N
1664902935.9,286047003.1,N
1664902955.7,286047003.7,N
1664902975.6,286047003.8,N
1664902995.4,286047001.4,N
1664903015.3,286047001.6,N
1664903035.1,286047001.5,N
1664903055.8,286047002.7,N
1664903075.7,286046999.9,N
1664903095.5,286047000.9,N
1664903115.4,286046999.7,N
1664903135.2,286046999.9,N
1664903155.0,286046998.2,N
1664903155.9,286046998.2,N
1664903175.8,286047000.5,N
1664903195.6,286046999.9,N
1664903215.4,286046999.8,N
1664903235.3,286047000.7,N
1664903255.1,286047002.3,N
1664903275.9,286047002.5,N
1664903295.7,286047002.3,N
1664903315.5,286047001.9,N
1664903335.4,286047001.7,N
1664903355.2,286047002.2,N
1664903375.0,286047000.6,N
1664903375.9,286047000.6,N
1664903395.8,286047000.2,N
1664903415.6,286047000.9,N
1664903435.5,286047000.6,N
1664903455.3,286047002.4,N
1664903475.1,286047001.9,N
1664903495.9,286047002.5,N
1664903515.7,286047000.2,N
1664903535.5,286047002.8,N
1664903555.4,286047002.8,N
1664903575.2,286047002.4,N
1664903595.1,286047002.2,N
1664903596.0,286047002.2,N
1664903615.8,286047002.5,N
1664903635.6,286047004.4,Y
1664903655.5,286046999.7,P
1664903675.3,286046999.7,N
1664903695.1,286047001.6,N
1664903715.9,286047001.6,N
1664903735.7,286047001.7,N
1664903755.6,286047004.4,Y
1664903775.4,286046998.8,P
1664903795.2,286046998.9,N
1664903815.1,286046998.2,N
1664903816.0,286046998.2,N
1664903835.8,286046998.6,N
1664903855.6,286046998.4,N
1664903875.5,286046999.0,N
1664903895.3,286046998.1,N
1664903915.2,286046998.8,N
1664903935.9,286046999.3,N
1664903955.7,286047001.1,N
1664903975.6,286046999.4,N
1664903995.4,286046998.3,N
1664904015.2,286046998.9,N
1664904035.1,286047000.8,N
1664904036.0,286047000.8,N
1664904055.8,286046998.6,N
1664904075.7,286046999.6,N
1664904095.5,286046998.4,N
1664904115.3,286047001.2,N
1664904135.2,286047000.5,N
1664904155.0,286046998.1,N
1664904155.9,286046998.1,N
1664904175.8,286046999.5,N
1664904195.6,286046998.6,N
1664904215.4,286047000.0,N
1664904235.3,286047002.0,N
1664904255.1,286047000.1,N
1664904275.8,286047002.8,N
1664904295.7,286046998.1,N
1664904315.5,286046999.5,N
1664904335.4,286046998.4,N
1664904355.2,286047000.6,N
1664904375.0,286047000.0,N
1664904375.9,286047000.0,N
1664904395.8,286047002.2,N
1664904415.6,286047002.0,N
1664904435.5,286047002.2,N
1664904455.3,286047002.3,N
1664904475.1,286046999.9,N
1664904495.9,286047000.7,N
1664904515.7,286047000.5,N
1664904535.5,286046999.9,N
1664904555.4,286046999.7,N
1664904575.2,286047002.2,N
1664904595.1,286047002.1,N
1664904596.0,286047002.1,N
1664904615.8,286047002.0,N
1664904635.6,286047002.1,N
1664904655.5,286047000.0,N
1664904675.3,286047001.4,N
1664904695.2,286047002.6,N
1664904715.9,286047002.6,N
1664904735.7,286047001.3,N
1664904755.6,286047001.3,N
1664904775.4,286047001.4,N
1664904795.2,286047002.2,N
1664904815.1,286047002.4,N
1664904816.0,286047002.4,N
1664904835.8,286046999.7,N
1664904855.7,286047002.3,N
1664904875.5,286046999.8,N
1664904895.3,286047002.4,N
1664904915.2,286047004.4,Y
1664904935.0,286047000.0,P
1664904935.9,286047000.0,N
1664904955.8,286047000.6,N
1664904975.6,286047001.2,N
1664904995.4,286047000.0,N
1664905015.3,286047000.8,N
1664905035.1,286047001.2,N
1664905055.8,286047000.4,N
1664905075.7,286047000.5,N
1664905095.5,286046999.9,N
1664905115.4,286047002.7,Y
1664905135.2,286047002.4,P
1664905155.0,286047000.3,N
1664905155.9,286047000.3,N
1664905175.8,286047000.2,N
1664905195.6,286046998.5,N
1664905215.4,286046998.9,N
1664905235.3,286046997.3,N
1664905255.1,286046995.0,Y
1664905275.9,286046997.1,P
1664905295.7,286046995.8,P
1664905315.5,286046993.8,P
1664905335.4,286046994.2,N
1664905355.2,286046996.3,N
1664905375.1,286046995.3,N
1664905376.0,286046995.3,N
1664905395.8,286046995.3,N
1664905415.6,286046995.3,N
1664905435.5,286046997.8,N
1664905455.3,286046999.4,N
1664905475.1,286046996.6,N
1664905495.9,286046998.8,N
1664905515.7,286046999.0,N
1664905535.6,286046996.9,N
1664905555.4,286046997.2,N
1664905575.2,286046996.9,N
1664905595.1,286046997.4,N
1664905596.0,286046997.4,N
1664905615.8,286046999.6,N
1664905635.6,286046999.1,N
1664905655.5,286046995.1,N
1664905675.3,286046997.9,N
1664905695.2,286046999.1,N
1664905715.9,286047000.7,N
1664905735.7,286047000.9,N
1664905755.6,286046998.1,N
1664905775.4,286046998.7,N
1664905795.2,286046999.1,N
1664905815.1,286046998.7,N
1664905816.0,286046998.7,N
1664905835.8,286047000.8,N
1664905855.7,286047000.2,N
1664905875.5,286047000.2,N
1664905895.3,286046999.9,N
1664905915.2,286046998.2,N
1664905935.0,286046998.9,N
1664905935.9,286046998.9,N
1664905955.8,286046999.5,N
1664905975.6,286046996.5,N
1664905995.4,286046998.9,N
1664906015.3,286046998.9,N
1664906035.1,286047000.4,N
1664906055.8,286047001.5,N
1664906075.7,286047002.2,N
1664906095.5,286047002.0,N
1664906115.4,286047001.7,N
1664906135.2,286047003.3,N
1664906155.0,286047003.5,N
1664906155.9,286047003.5,N
1664906175.8,286047001.3,N
1664906195.6,286047005.6,N
1664906215.4,286047003.8,N
1664906235.3,286046999.7,N
1664906255.1,286047002.1,N
1664906275.9,286047002.6,N
1664906295.7,286047004.4,N
1664906315.5,286047003.7,N
1664906335.4,286047004.3,N
1664906355.2,286047001.3,N
1664906375.0,286047003.2,N
1664906375.9,286047003.2,N
1664906395.8,286047005.5,N
